contact:dominique.lefevre@mio.osupytheas.fr, maurice.libes@osupytheas.fr, didier.mallarino@osupytheas.fr
Project:EMSO http://www.emso-fr.org/EMSO-France
Depth: 2436.0 m
Title:EMSO Ligure Ouest : Data MII capteur MICROCAT
DateTime_Computer,Latitude,Longitude,Temperature,Conductivity,Pressure,DateTime_Instrument
DateTime_Computer,Latitude,Longitude,degC,S m-1,dbar,DateTime_Instrument
2022-11-14T00:00:49Z,42.805,6.029,13.3037,4.60067,2470.707,2022-11-14T02:02:47Z
2022-11-14T00:03:52Z,42.805,6.029,13.3034,4.60068,2470.684,2022-11-14T02:05:50Z
2022-11-14T00:06:55Z,42.805,6.029,13.3035,4.60065,2470.684,2022-11-14T02:08:53Z
2022-11-14T00:09:58Z,42.805,6.029,13.3034,4.60127,2470.717,2022-11-14T02:11:57Z
2022-11-14T00:13:02Z,42.805,6.029,13.3038,4.60129,2470.73,2022-11-14T02:15:00Z
2022-11-14T00:16:05Z,42.805,6.029,13.3036,4.60101,2470.679,2022-11-14T02:18:03Z
2022-11-14T00:19:08Z,42.805,6.029,13.3019,4.60110,2470.707,2022-11-14T02:21:06Z
2022-11-14T00:22:11Z,42.805,6.029,13.3027,4.60098,2470.707,2022-11-14T02:24:09Z
2022-11-14T00:25:14Z,42.805,6.029,13.3037,4.60093,2470.707,2022-11-14T02:27:12Z
2022-11-14T00:28:17Z,42.805,6.029,13.3034,4.60132,2470.67,2022-11-14T02:30:15Z
2022-11-14T00:31:20Z,42.805,6.029,13.3042,4.60114,2470.67,2022-11-14T02:33:18Z
2022-11-14T00:34:23Z,42.805,6.029,13.3048,4.60114,2470.707,2022-11-14T02:36:21Z
2022-11-14T00:37:26Z,42.805,6.029,13.3051,4.60102,2470.707,2022-11-14T02:39:24Z
2022-11-14T00:40:29Z,42.805,6.029,13.3031,4.60119,2470.684,2022-11-14T02:42:27Z
2022-11-14T00:43:32Z,42.805,6.029,13.3035,4.60110,2470.646,2022-11-14T02:45:30Z
2022-11-14T00:46:35Z,42.805,6.029,13.3022,4.60097,2470.707,2022-11-14T02:48:33Z
2022-11-14T00:49:38Z,42.805,6.029,13.3032,4.60125,2470.693,2022-11-14T02:51:37Z
2022-11-14T00:52:42Z,42.805,6.029,13.3048,4.60114,2470.693,2022-11-14T02:54:40Z
2022-11-14T00:55:45Z,42.805,6.029,13.3040,4.60081,2470.707,2022-11-14T02:57:43Z
2022-11-14T00:58:48Z,42.805,6.029,13.3041,4.60069,2470.684,2022-11-14T03:00:46Z
2022-11-14T01:01:51Z,42.805,6.029,13.3023,4.60093,2470.646,2022-11-14T03:03:49Z
2022-11-14T01:04:54Z,42.805,6.029,13.3056,4.60135,2470.67,2022-11-14T03:06:52Z
2022-11-14T01:07:57Z,42.805,6.029,13.3033,4.60107,2470.684,2022-11-14T03:09:55Z
2022-11-14T01:11:00Z,42.805,6.029,13.3040,4.60137,2470.67,2022-11-14T03:12:58Z
2022-11-14T01:14:03Z,42.805,6.029,13.3041,4.60120,2470.684,2022-11-14T03:16:01Z
2022-11-14T01:17:06Z,42.805,6.029,13.3021,4.60113,2470.661,2022-11-14T03:19:04Z
2022-11-14T01:20:09Z,42.805,6.029,13.3039,4.60122,2470.684,2022-11-14T03:22:07Z
2022-11-14T01:23:12Z,42.805,6.029,13.3044,4.60120,2470.67,2022-11-14T03:25:10Z
2022-11-14T01:26:15Z,42.805,6.029,13.3049,4.60132,2470.661,2022-11-14T03:28:13Z
2022-11-14T01:29:18Z,42.805,6.029,13.3038,4.60126,2470.67,2022-11-14T03:31:17Z
2022-11-14T01:32:22Z,42.805,6.029,13.3047,4.60139,2470.693,2022-11-14T03:34:20Z
2022-11-14T01:35:25Z,42.805,6.029,13.3035,4.60144,2470.684,2022-11-14T03:37:23Z
2022-11-14T01:38:28Z,42.805,6.029,13.3045,4.60113,2470.67,2022-11-14T03:40:26Z
2022-11-14T01:41:31Z,42.805,6.029,13.3041,4.60102,2470.67,2022-11-14T03:43:29Z
2022-11-14T01:44:34Z,42.805,6.029,13.3042,4.60085,2470.646,2022-11-14T03:46:32Z
2022-11-14T01:47:37Z,42.805,6.029,13.3035,4.60077,2470.646,2022-11-14T03:49:35Z
2022-11-14T01:50:40Z,42.805,6.029,13.3046,4.60126,2470.661,2022-11-14T03:52:38Z
2022-11-14T01:53:43Z,42.805,6.029,13.3064,4.60098,2470.67,2022-11-14T03:55:41Z
2022-11-14T01:56:46Z,42.805,6.029,13.3021,4.60107,2470.637,2022-11-14T03:58:44Z
2022-11-14T01:59:49Z,42.805,6.029,13.3048,4.60115,2470.646,2022-11-14T04:01:47Z
2022-11-14T02:02:52Z,42.805,6.029,13.3026,4.60078,2470.637,2022-11-14T04:04:50Z
2022-11-14T02:05:55Z,42.805,6.029,13.3026,4.60097,2470.637,2022-11-14T04:07:53Z
2022-11-14T02:08:58Z,42.805,6.029,13.3026,4.60097,2470.637,2022-11-14T04:10:57Z
2022-11-14T02:12:02Z,42.805,6.029,13.3046,4.60102,2470.661,2022-11-14T04:14:00Z
2022-11-14T02:15:05Z,42.805,6.029,13.3049,4.60096,2470.637,2022-11-14T04:17:03Z
2022-11-14T02:18:08Z,42.805,6.029,13.3039,4.60089,2470.661,2022-11-14T04:20:06Z
2022-11-14T02:21:11Z,42.805,6.029,13.3040,4.60081,2470.624,2022-11-14T04:23:09Z
2022-11-14T02:24:14Z,42.805,6.029,13.3049,4.60137,2470.646,2022-11-14T04:26:12Z
2022-11-14T02:27:17Z,42.805,6.029,13.3067,4.60104,2470.661,2022-11-14T04:29:15Z
2022-11-14T02:30:20Z,42.805,6.029,13.3054,4.60078,2470.646,2022-11-14T04:32:18Z
2022-11-14T02:33:23Z,42.805,6.029,13.3037,4.60092,2470.646,2022-11-14T04:35:21Z
2022-11-14T02:36:26Z,42.805,6.029,13.3039,4.60085,2470.661,2022-11-14T04:38:24Z
2022-11-14T02:39:29Z,42.805,6.029,13.3043,4.60106,2470.614,2022-11-14T04:41:27Z
2022-11-14T02:42:32Z,42.805,6.029,13.3051,4.60108,2470.637,2022-11-14T04:44:30Z
2022-11-14T02:45:35Z,42.805,6.029,13.3049,4.60080,2470.637,2022-11-14T04:47:33Z
2022-11-14T02:48:38Z,42.805,6.029,13.3038,4.60078,2470.684,2022-11-14T04:50:37Z
2022-11-14T02:51:42Z,42.805,6.029,13.3026,4.60079,2470.637,2022-11-14T04:53:40Z
2022-11-14T02:54:45Z,42.805,6.029,13.3037,4.60093,2470.637,2022-11-14T04:56:43Z
2022-11-14T02:57:48Z,42.805,6.029,13.3031,4.60099,2470.637,2022-11-14T04:59:46Z
2022-11-14T03:00:51Z,42.805,6.029,13.3033,4.60081,2470.637,2022-11-14T05:02:49Z
2022-11-14T03:03:54Z,42.805,6.029,13.3024,4.60078,2470.637,2022-11-14T05:05:52Z
2022-11-14T03:06:57Z,42.805,6.029,13.3026,4.60098,2470.646,2022-11-14T05:08:55Z
2022-11-14T03:10:00Z,42.805,6.029,13.3035,4.60070,2470.6,2022-11-14T05:11:58Z
2022-11-14T03:13:03Z,42.805,6.029,13.3039,4.60112,2470.646,2022-11-14T05:15:01Z
2022-11-14T03:16:06Z,42.805,6.029,13.3036,4.60086,2470.661,2022-11-14T05:18:04Z
2022-11-14T03:19:09Z,42.805,6.029,13.3041,4.60110,2470.646,2022-11-14T05:21:07Z
2022-11-14T03:22:12Z,42.805,6.029,13.3046,4.60074,2470.624,2022-11-14T05:24:10Z
2022-11-14T03:25:15Z,42.805,6.029,13.3042,4.60075,2470.661,2022-11-14T05:27:13Z
2022-11-14T03:28:18Z,42.805,6.029,13.3021,4.60103,2470.624,2022-11-14T05:30:17Z
2022-11-14T03:31:22Z,42.805,6.029,13.3042,4.60097,2470.6,2022-11-14T05:33:20Z
2022-11-14T03:34:25Z,42.805,6.029,13.3028,4.60084,2470.6,2022-11-14T05:36:23Z
2022-11-14T03:37:28Z,42.805,6.029,13.3038,4.60086,2470.637,2022-11-14T05:39:26Z
2022-11-14T03:40:31Z,42.805,6.029,13.3024,4.60081,2470.637,2022-11-14T05:42:29Z
2022-11-14T03:43:34Z,42.805,6.029,13.3034,4.60084,2470.637,2022-11-14T05:45:32Z
2022-11-14T03:46:37Z,42.805,6.029,13.3036,4.60072,2470.646,2022-11-14T05:48:35Z
2022-11-14T03:49:40Z,42.805,6.029,13.3025,4.60076,2470.637,2022-11-14T05:51:38Z
2022-11-14T03:52:43Z,42.805,6.029,13.3031,4.60067,2470.614,2022-11-14T05:54:41Z
2022-11-14T03:55:46Z,42.805,6.029,13.3037,4.60080,2470.637,2022-11-14T05:57:44Z
2022-11-14T03:58:49Z,42.805,6.029,13.3043,4.60078,2470.624,2022-11-14T06:00:47Z
2022-11-14T04:01:52Z,42.805,6.029,13.3036,4.60102,2470.624,2022-11-14T06:03:50Z
2022-11-14T04:04:55Z,42.805,6.029,13.3039,4.60099,2470.661,2022-11-14T06:06:53Z
2022-11-14T04:07:58Z,42.805,6.029,13.3046,4.60069,2470.637,2022-11-14T06:09:57Z
2022-11-14T04:11:02Z,42.805,6.029,13.3041,4.60072,2470.637,2022-11-14T06:13:00Z
2022-11-14T04:14:05Z,42.805,6.029,13.3036,4.60096,2470.646,2022-11-14T06:16:03Z
2022-11-14T04:17:08Z,42.805,6.029,13.3042,4.60077,2470.624,2022-11-14T06:19:06Z
2022-11-14T04:20:11Z,42.805,6.029,13.3039,4.60095,2470.624,2022-11-14T06:22:09Z
2022-11-14T04:23:14Z,42.805,6.029,13.3035,4.60084,2470.637,2022-11-14T06:25:12Z
2022-11-14T04:26:17Z,42.805,6.029,13.3021,4.60102,2470.637,2022-11-14T06:28:15Z
2022-11-14T04:29:20Z,42.805,6.029,13.3033,4.60119,2470.646,2022-11-14T06:31:18Z
2022-11-14T04:32:23Z,42.805,6.029,13.3064,4.60094,2470.624,2022-11-14T06:34:21Z
2022-11-14T04:35:26Z,42.805,6.029,13.3048,4.60082,2470.624,2022-11-14T06:37:24Z
2022-11-14T04:38:29Z,42.805,6.029,13.3051,4.60111,2470.661,2022-11-14T06:40:27Z
2022-11-14T04:41:32Z,42.805,6.029,13.3057,4.60116,2470.637,2022-11-14T06:43:30Z
2022-11-14T04:44:35Z,42.805,6.029,13.3034,4.60138,2470.646,2022-11-14T06:46:34Z
2022-11-14T04:47:39Z,42.805,6.029,13.3049,4.60096,2470.624,2022-11-14T06:49:37Z
2022-11-14T04:50:42Z,42.805,6.029,13.3044,4.60143,2470.614,2022-11-14T06:52:40Z
2022-11-14T04:53:45Z,42.805,6.029,13.3061,4.60095,2470.624,2022-11-14T06:55:43Z
2022-11-14T04:56:48Z,42.805,6.029,13.3044,4.60135,2470.637,2022-11-14T06:58:46Z
2022-11-14T04:59:51Z,42.805,6.029,13.3048,4.60130,2470.591,2022-11-14T07:01:49Z
2022-11-14T05:02:54Z,42.805,6.029,13.3058,4.60129,2470.646,2022-11-14T07:04:52Z
2022-11-14T05:05:57Z,42.805,6.029,13.3038,4.60076,2470.661,2022-11-14T07:07:55Z
2022-11-14T05:09:00Z,42.805,6.029,13.3063,4.60094,2470.661,2022-11-14T07:10:58Z
2022-11-14T05:12:03Z,42.805,6.029,13.3043,4.60095,2470.637,2022-11-14T07:14:01Z
2022-11-14T05:15:06Z,42.805,6.029,13.3039,4.60097,2470.661,2022-11-14T07:17:04Z
2022-11-14T05:18:09Z,42.805,6.029,13.3051,4.60094,2470.684,2022-11-14T07:20:07Z
2022-11-14T05:21:12Z,42.805,6.029,13.3039,4.60097,2470.646,2022-11-14T07:23:10Z
2022-11-14T05:24:15Z,42.805,6.029,13.3040,4.60106,2470.661,2022-11-14T07:26:14Z
2022-11-14T05:27:19Z,42.805,6.029,13.3059,4.60149,2470.637,2022-11-14T07:29:17Z
2022-11-14T05:30:22Z,42.805,6.029,13.3063,4.60167,2470.646,2022-11-14T07:32:20Z
2022-11-14T05:33:25Z,42.805,6.029,13.3064,4.60138,2470.637,2022-11-14T07:35:23Z
2022-11-14T05:36:28Z,42.805,6.029,13.3069,4.60160,2470.661,2022-11-14T07:38:26Z
2022-11-14T05:39:31Z,42.805,6.029,13.3079,4.60112,2470.624,2022-11-14T07:41:29Z
2022-11-14T05:42:34Z,42.805,6.029,13.3039,4.60105,2470.624,2022-11-14T07:44:32Z
2022-11-14T05:45:37Z,42.805,6.029,13.3054,4.60148,2470.661,2022-11-14T07:47:35Z
2022-11-14T05:48:40Z,42.805,6.029,13.3054,4.60133,2470.624,2022-11-14T07:50:38Z
2022-11-14T05:51:43Z,42.805,6.029,13.3058,4.60141,2470.646,2022-11-14T07:53:41Z
2022-11-14T05:54:46Z,42.805,6.029,13.3063,4.60126,2470.67,2022-11-14T07:56:44Z
2022-11-14T05:57:49Z,42.805,6.029,13.3049,4.60125,2470.637,2022-11-14T07:59:47Z
2022-11-14T06:00:52Z,42.805,6.029,13.3067,4.60136,2470.624,2022-11-14T08:02:51Z
2022-11-14T06:03:55Z,42.805,6.029,13.3091,4.60171,2470.67,2022-11-14T08:05:54Z
2022-11-14T06:06:59Z,42.805,6.029,13.3046,4.60122,2470.637,2022-11-14T08:08:57Z
2022-11-14T06:10:02Z,42.805,6.029,13.3055,4.60165,2470.684,2022-11-14T08:12:00Z
2022-11-14T06:13:05Z,42.805,6.029,13.3069,4.60150,2470.646,2022-11-14T08:15:03Z
2022-11-14T06:16:08Z,42.805,6.029,13.3063,4.60138,2470.646,2022-11-14T08:18:06Z
2022-11-14T06:19:11Z,42.805,6.029,13.3062,4.60150,2470.67,2022-11-14T08:21:09Z
2022-11-14T06:22:14Z,42.805,6.029,13.3051,4.60146,2470.67,2022-11-14T08:24:12Z
2022-11-14T06:25:17Z,42.805,6.029,13.3048,4.60162,2470.661,2022-11-14T08:27:15Z
2022-11-14T06:28:20Z,42.805,6.029,13.3056,4.60135,2470.646,2022-11-14T08:30:18Z
2022-11-14T06:31:23Z,42.805,6.029,13.3054,4.60135,2470.67,2022-11-14T08:33:21Z
2022-11-14T06:34:26Z,42.805,6.029,13.3056,4.60142,2470.67,2022-11-14T08:36:24Z
2022-11-14T06:37:29Z,42.805,6.029,13.3034,4.60134,2470.67,2022-11-14T08:39:27Z
2022-11-14T06:40:32Z,42.805,6.029,13.3044,4.60142,2470.684,2022-11-14T08:42:30Z
2022-11-14T06:43:36Z,42.805,6.029,13.3069,4.60130,2470.661,2022-11-14T08:45:34Z
2022-11-14T06:46:39Z,42.805,6.029,13.3056,4.60098,2470.684,2022-11-14T08:48:37Z
2022-11-14T06:49:42Z,42.805,6.029,13.3054,4.60127,2470.684,2022-11-14T08:51:40Z
2022-11-14T06:52:45Z,42.805,6.029,13.3051,4.60158,2470.684,2022-11-14T08:54:43Z
2022-11-14T06:55:48Z,42.805,6.029,13.3025,4.60122,2470.707,2022-11-14T08:57:46Z
2022-11-14T06:58:51Z,42.805,6.029,13.3037,4.60146,2470.67,2022-11-14T09:00:49Z
2022-11-14T07:01:54Z,42.805,6.029,13.3057,4.60139,2470.693,2022-11-14T09:03:52Z
2022-11-14T07:04:57Z,42.805,6.029,13.3052,4.60151,2470.707,2022-11-14T09:06:55Z
2022-11-14T07:08:00Z,42.805,6.029,13.3056,4.60135,2470.693,2022-11-14T09:09:58Z
2022-11-14T07:11:03Z,42.805,6.029,13.3051,4.60111,2470.684,2022-11-14T09:13:01Z
2022-11-14T07:14:06Z,42.805,6.029,13.3050,4.60133,2470.707,2022-11-14T09:16:04Z
2022-11-14T07:17:09Z,42.805,6.029,13.3059,4.60128,2470.73,2022-11-14T09:19:07Z
2022-11-14T07:20:12Z,42.805,6.029,13.3054,4.60132,2470.693,2022-11-14T09:22:11Z
2022-11-14T07:23:16Z,42.805,6.029,13.3075,4.60137,2470.693,2022-11-14T09:25:14Z
2022-11-14T07:26:19Z,42.805,6.029,13.3054,4.60102,2470.679,2022-11-14T09:28:17Z
2022-11-14T07:29:22Z,42.805,6.029,13.3058,4.60122,2470.73,2022-11-14T09:31:20Z
2022-11-14T07:32:25Z,42.805,6.029,13.3048,4.60140,2470.73,2022-11-14T09:34:23Z
2022-11-14T07:35:28Z,42.805,6.029,13.3046,4.60127,2470.717,2022-11-14T09:37:26Z
2022-11-14T07:38:31Z,42.805,6.029,13.3052,4.60132,2470.754,2022-11-14T09:40:29Z
2022-11-14T07:41:34Z,42.805,6.029,13.3046,4.60124,2470.73,2022-11-14T09:43:32Z
2022-11-14T07:44:37Z,42.805,6.029,13.3062,4.60111,2470.73,2022-11-14T09:46:35Z
2022-11-14T07:47:40Z,42.805,6.029,13.3041,4.60131,2470.693,2022-11-14T09:49:38Z
2022-11-14T07:50:43Z,42.805,6.029,13.3052,4.60123,2470.73,2022-11-14T09:52:41Z
2022-11-14T07:53:46Z,42.805,6.029,13.3070,4.60119,2470.74,2022-11-14T09:55:44Z
2022-11-14T07:56:49Z,42.805,6.029,13.3043,4.60142,2470.754,2022-11-14T09:58:48Z
2022-11-14T07:59:53Z,42.805,6.029,13.3052,4.60133,2470.754,2022-11-14T10:01:51Z
2022-11-14T08:02:56Z,42.805,6.029,13.3060,4.60134,2470.754,2022-11-14T10:04:54Z
2022-11-14T08:05:59Z,42.805,6.029,13.3061,4.60150,2470.717,2022-11-14T10:07:57Z
2022-11-14T08:09:02Z,42.805,6.029,13.3061,4.60165,2470.754,2022-11-14T10:11:00Z
2022-11-14T08:12:05Z,42.805,6.029,13.3063,4.60141,2470.74,2022-11-14T10:14:03Z
2022-11-14T08:15:08Z,42.805,6.029,13.3054,4.60146,2470.74,2022-11-14T10:17:06Z
2022-11-14T08:18:11Z,42.805,6.029,13.3048,4.60136,2470.717,2022-11-14T10:20:09Z
2022-11-14T08:21:14Z,42.805,6.029,13.3047,4.60119,2470.777,2022-11-14T10:23:12Z
2022-11-14T08:24:17Z,42.805,6.029,13.3061,4.60146,2470.74,2022-11-14T10:26:15Z
2022-11-14T08:27:20Z,42.805,6.029,13.3065,4.60102,2470.754,2022-11-14T10:29:18Z
2022-11-14T08:30:23Z,42.805,6.029,13.3070,4.60137,2470.754,2022-11-14T10:32:21Z
2022-11-14T08:33:26Z,42.805,6.029,13.3067,4.60114,2470.777,2022-11-14T10:35:24Z
2022-11-14T08:36:29Z,42.805,6.029,13.3028,4.60127,2470.787,2022-11-14T10:38:28Z
2022-11-14T08:39:33Z,42.805,6.029,13.3046,4.60119,2470.74,2022-11-14T10:41:31Z
2022-11-14T08:42:36Z,42.805,6.029,13.3051,4.60130,2470.763,2022-11-14T10:44:34Z
2022-11-14T08:45:39Z,42.805,6.029,13.3064,4.60122,2470.763,2022-11-14T10:47:37Z
2022-11-14T08:48:42Z,42.805,6.029,13.3051,4.60150,2470.777,2022-11-14T10:50:40Z
2022-11-14T08:51:45Z,42.805,6.029,13.3034,4.60128,2470.763,2022-11-14T10:53:43Z
2022-11-14T08:54:48Z,42.805,6.029,13.3046,4.60125,2470.74,2022-11-14T10:56:46Z
2022-11-14T08:57:51Z,42.805,6.029,13.3021,4.60099,2470.787,2022-11-14T10:59:49Z
2022-11-14T09:00:54Z,42.805,6.029,13.3039,4.60129,2470.787,2022-11-14T11:02:52Z
2022-11-14T09:03:57Z,42.805,6.029,13.3044,4.60139,2470.777,2022-11-14T11:05:55Z
2022-11-14T09:07:00Z,42.805,6.029,13.3018,4.60118,2470.81,2022-11-14T11:08:58Z
2022-11-14T09:10:03Z,42.805,6.029,13.3034,4.60134,2470.777,2022-11-14T11:12:01Z
2022-11-14T09:13:06Z,42.805,6.029,13.3039,4.60133,2470.763,2022-11-14T11:15:05Z
2022-11-14T09:16:10Z,42.805,6.029,13.3039,4.60103,2470.8,2022-11-14T11:18:08Z
2022-11-14T09:19:13Z,42.805,6.029,13.3034,4.60117,2470.777,2022-11-14T11:21:11Z
2022-11-14T09:22:16Z,42.805,6.029,13.3054,4.60133,2470.763,2022-11-14T11:24:14Z
2022-11-14T09:25:19Z,42.805,6.029,13.3049,4.60115,2470.787,2022-11-14T11:27:17Z
2022-11-14T09:28:22Z,42.805,6.029,13.3048,4.60134,2470.787,2022-11-14T11:30:20Z
2022-11-14T09:31:25Z,42.805,6.029,13.3050,4.60136,2470.777,2022-11-14T11:33:23Z
2022-11-14T09:34:28Z,42.805,6.029,13.3030,4.60122,2470.763,2022-11-14T11:36:26Z
2022-11-14T09:37:31Z,42.805,6.029,13.3061,4.60116,2470.777,2022-11-14T11:39:29Z
2022-11-14T09:40:34Z,42.805,6.029,13.3050,4.60120,2470.787,2022-11-14T11:42:32Z
2022-11-14T09:43:37Z,42.805,6.029,13.3048,4.60125,2470.824,2022-11-14T11:45:35Z
2022-11-14T09:46:40Z,42.805,6.029,13.3040,4.60122,2470.763,2022-11-14T11:48:38Z
2022-11-14T09:49:43Z,42.805,6.029,13.3046,4.60121,2470.787,2022-11-14T11:51:42Z
2022-11-14T09:52:47Z,42.805,6.029,13.3035,4.60110,2470.8,2022-11-14T11:54:45Z
2022-11-14T09:55:50Z,42.805,6.029,13.3033,4.60122,2470.787,2022-11-14T11:57:48Z
2022-11-14T09:58:53Z,42.805,6.029,13.3026,4.60104,2470.787,2022-11-14T12:00:51Z
2022-11-14T10:01:56Z,42.805,6.029,13.3020,4.60081,2470.81,2022-11-14T12:03:54Z
2022-11-14T10:04:59Z,42.805,6.029,13.3019,4.60079,2470.81,2022-11-14T12:06:57Z
2022-11-14T10:08:02Z,42.805,6.029,13.3015,4.60080,2470.787,2022-11-14T12:10:00Z
2022-11-14T10:11:05Z,42.805,6.029,13.3015,4.60081,2470.787,2022-11-14T12:13:03Z
2022-11-14T10:14:08Z,42.805,6.029,13.3024,4.60094,2470.763,2022-11-14T12:16:06Z
2022-11-14T10:17:11Z,42.805,6.029,13.3045,4.60110,2470.787,2022-11-14T12:19:09Z
2022-11-14T10:20:14Z,42.805,6.029,13.3034,4.60122,2470.787,2022-11-14T12:22:12Z
2022-11-14T10:23:17Z,42.805,6.029,13.3046,4.60113,2470.81,2022-11-14T12:25:15Z
2022-11-14T10:26:20Z,42.805,6.029,13.3040,4.60127,2470.777,2022-11-14T12:28:19Z
2022-11-14T10:29:24Z,42.805,6.029,13.3050,4.60126,2470.787,2022-11-14T12:31:22Z
2022-11-14T10:32:27Z,42.805,6.029,13.3048,4.60128,2470.787,2022-11-14T12:34:25Z
2022-11-14T10:35:30Z,42.805,6.029,13.3047,4.60121,2470.787,2022-11-14T12:37:28Z
2022-11-14T10:38:33Z,42.805,6.029,13.3029,4.60114,2470.787,2022-11-14T12:40:31Z
2022-11-14T10:41:36Z,42.805,6.029,13.3044,4.60127,2470.777,2022-11-14T12:43:34Z
2022-11-14T10:44:39Z,42.805,6.029,13.3038,4.60130,2470.8,2022-11-14T12:46:37Z
2022-11-14T10:47:42Z,42.805,6.029,13.3041,4.60152,2470.787,2022-11-14T12:49:40Z
2022-11-14T10:50:45Z,42.805,6.029,13.3058,4.60118,2470.787,2022-11-14T12:52:43Z
2022-11-14T10:53:48Z,42.805,6.029,13.3046,4.60117,2470.81,2022-11-14T12:55:46Z
2022-11-14T10:56:51Z,42.805,6.029,13.3048,4.60097,2470.777,2022-11-14T12:58:49Z
2022-11-14T10:59:54Z,42.805,6.029,13.3041,4.60141,2470.824,2022-11-14T13:01:52Z
2022-11-14T11:02:57Z,42.805,6.029,13.3052,4.60131,2470.81,2022-11-14T13:04:56Z
2022-11-14T11:06:01Z,42.805,6.029,13.3049,4.60142,2470.763,2022-11-14T13:07:59Z
2022-11-14T11:09:04Z,42.805,6.029,13.3044,4.60122,2470.8,2022-11-14T13:11:02Z
2022-11-14T11:12:07Z,42.805,6.029,13.3041,4.60121,2470.763,2022-11-14T13:14:05Z
2022-11-14T11:15:10Z,42.805,6.029,13.3027,4.60109,2470.8,2022-11-14T13:17:08Z
2022-11-14T11:18:13Z,42.805,6.029,13.3034,4.60102,2470.824,2022-11-14T13:20:11Z
2022-11-14T11:21:16Z,42.805,6.029,13.3039,4.60118,2470.824,2022-11-14T13:23:14Z
2022-11-14T11:24:19Z,42.805,6.029,13.3034,4.60105,2470.787,2022-11-14T13:26:17Z
2022-11-14T11:27:22Z,42.805,6.029,13.3040,4.60125,2470.787,2022-11-14T13:29:20Z
2022-11-14T11:30:25Z,42.805,6.029,13.3029,4.60105,2470.763,2022-11-14T13:32:23Z
2022-11-14T11:33:28Z,42.805,6.029,13.3024,4.60112,2470.787,2022-11-14T13:35:26Z
2022-11-14T11:36:31Z,42.805,6.029,13.3029,4.60119,2470.787,2022-11-14T13:38:29Z
2022-11-14T11:39:34Z,42.805,6.029,13.3022,4.60127,2470.81,2022-11-14T13:41:33Z
2022-11-14T11:42:38Z,42.805,6.029,13.3041,4.60120,2470.787,2022-11-14T13:44:36Z
2022-11-14T11:45:41Z,42.805,6.029,13.3036,4.60135,2470.777,2022-11-14T13:47:39Z
2022-11-14T11:48:44Z,42.805,6.029,13.3040,4.60125,2470.787,2022-11-14T13:50:42Z
2022-11-14T11:51:47Z,42.805,6.029,13.3039,4.60124,2470.763,2022-11-14T13:53:45Z
2022-11-14T11:54:50Z,42.805,6.029,13.3048,4.60127,2470.763,2022-11-14T13:56:48Z
2022-11-14T11:57:53Z,42.805,6.029,13.3037,4.60149,2470.787,2022-11-14T13:59:51Z
2022-11-14T12:00:56Z,42.805,6.029,13.3040,4.60121,2470.787,2022-11-14T14:02:54Z
2022-11-14T12:03:59Z,42.805,6.029,13.3031,4.60119,2470.763,2022-11-14T14:05:57Z
2022-11-14T12:07:02Z,42.805,6.029,13.3054,4.60127,2470.824,2022-11-14T14:09:00Z
2022-11-14T12:10:05Z,42.805,6.029,13.3041,4.60128,2470.763,2022-11-14T14:12:03Z
2022-11-14T12:13:08Z,42.805,6.029,13.3048,4.60138,2470.763,2022-11-14T14:15:06Z
2022-11-14T12:16:11Z,42.805,6.029,13.3041,4.60119,2470.763,2022-11-14T14:18:10Z
2022-11-14T12:19:15Z,42.805,6.029,13.3036,4.60122,2470.777,2022-11-14T14:21:13Z
2022-11-14T12:22:18Z,42.805,6.029,13.3029,4.60104,2470.763,2022-11-14T14:24:16Z
2022-11-14T12:25:21Z,42.805,6.029,13.3056,4.60117,2470.763,2022-11-14T14:27:19Z
2022-11-14T12:28:24Z,42.805,6.029,13.3054,4.60127,2470.777,2022-11-14T14:30:22Z
2022-11-14T12:31:27Z,42.805,6.029,13.3039,4.60133,2470.777,2022-11-14T14:33:25Z
2022-11-14T12:34:30Z,42.805,6.029,13.3034,4.60118,2470.8,2022-11-14T14:36:28Z
2022-11-14T12:37:33Z,42.805,6.029,13.3050,4.60119,2470.763,2022-11-14T14:39:31Z
2022-11-14T12:40:36Z,42.805,6.029,13.3024,4.60100,2470.717,2022-11-14T14:42:34Z
2022-11-14T12:43:39Z,42.805,6.029,13.3027,4.60120,2470.754,2022-11-14T14:45:37Z
2022-11-14T12:46:42Z,42.805,6.029,13.3028,4.60123,2470.754,2022-11-14T14:48:40Z
2022-11-14T12:49:45Z,42.805,6.029,13.3036,4.60124,2470.763,2022-11-14T14:51:43Z
2022-11-14T12:52:48Z,42.805,6.029,13.3039,4.60124,2470.74,2022-11-14T14:54:47Z
2022-11-14T12:55:52Z,42.805,6.029,13.3051,4.60108,2470.74,2022-11-14T14:57:50Z
2022-11-14T12:58:55Z,42.805,6.029,13.3033,4.60116,2470.763,2022-11-14T15:00:53Z
2022-11-14T13:01:58Z,42.805,6.029,13.3036,4.60121,2470.763,2022-11-14T15:03:56Z
2022-11-14T13:05:01Z,42.805,6.029,13.3044,4.60122,2470.717,2022-11-14T15:06:59Z
2022-11-14T13:08:04Z,42.805,6.029,13.3046,4.60132,2470.74,2022-11-14T15:10:02Z
2022-11-14T13:11:07Z,42.805,6.029,13.3037,4.60123,2470.777,2022-11-14T15:13:05Z
2022-11-14T13:14:10Z,42.805,6.029,13.3051,4.60139,2470.787,2022-11-14T15:16:08Z
2022-11-14T13:17:13Z,42.805,6.029,13.3044,4.60114,2470.754,2022-11-14T15:19:11Z
2022-11-14T13:20:16Z,42.805,6.029,13.3036,4.60139,2470.754,2022-11-14T15:22:14Z
2022-11-14T13:23:19Z,42.805,6.029,13.3044,4.60131,2470.754,2022-11-14T15:25:17Z
2022-11-14T13:26:22Z,42.805,6.029,13.3029,4.60125,2470.74,2022-11-14T15:28:20Z
2022-11-14T13:29:25Z,42.805,6.029,13.3034,4.60117,2470.73,2022-11-14T15:31:24Z
2022-11-14T13:32:29Z,42.805,6.029,13.3033,4.60116,2470.74,2022-11-14T15:34:27Z
2022-11-14T13:35:32Z,42.805,6.029,13.3047,4.60117,2470.777,2022-11-14T15:37:30Z
2022-11-14T13:38:35Z,42.805,6.029,13.3029,4.60132,2470.777,2022-11-14T15:40:33Z
2022-11-14T13:41:38Z,42.805,6.029,13.3039,4.60100,2470.763,2022-11-14T15:43:36Z
2022-11-14T13:44:41Z,42.805,6.029,13.3027,4.60117,2470.763,2022-11-14T15:46:39Z
2022-11-14T13:47:44Z,42.805,6.029,13.3046,4.60119,2470.73,2022-11-14T15:49:42Z
2022-11-14T13:50:47Z,42.805,6.029,13.3041,4.60126,2470.717,2022-11-14T15:52:45Z
2022-11-14T13:53:50Z,42.805,6.029,13.3039,4.60150,2470.73,2022-11-14T15:55:48Z
2022-11-14T13:56:53Z,42.805,6.029,13.3051,4.60144,2470.74,2022-11-14T15:58:51Z
2022-11-14T13:59:56Z,42.805,6.029,13.3067,4.60134,2470.754,2022-11-14T16:01:54Z
2022-11-14T14:02:59Z,42.805,6.029,13.3018,4.60121,2470.717,2022-11-14T16:04:57Z
2022-11-14T14:06:02Z,42.805,6.029,13.3041,4.60122,2470.73,2022-11-14T16:08:01Z
2022-11-14T14:09:06Z,42.805,6.029,13.3036,4.60137,2470.74,2022-11-14T16:11:04Z
2022-11-14T14:12:09Z,42.805,6.029,13.3036,4.60121,2470.74,2022-11-14T16:14:07Z
2022-11-14T14:15:12Z,42.805,6.029,13.3036,4.60113,2470.717,2022-11-14T16:17:10Z
2022-11-14T14:18:15Z,42.805,6.029,13.3043,4.60122,2470.74,2022-11-14T16:20:13Z
2022-11-14T14:21:18Z,42.805,6.029,13.3038,4.60112,2470.754,2022-11-14T16:23:16Z
2022-11-14T14:24:21Z,42.805,6.029,13.3034,4.60126,2470.73,2022-11-14T16:26:19Z
2022-11-14T14:27:24Z,42.805,6.029,13.3049,4.60116,2470.73,2022-11-14T16:29:22Z
2022-11-14T14:30:27Z,42.805,6.029,13.3038,4.60125,2470.717,2022-11-14T16:32:25Z
2022-11-14T14:33:30Z,42.805,6.029,13.3031,4.60119,2470.73,2022-11-14T16:35:28Z
2022-11-14T14:36:33Z,42.805,6.029,13.3041,4.60105,2470.754,2022-11-14T16:38:31Z
2022-11-14T14:39:36Z,42.805,6.029,13.3043,4.60115,2470.707,2022-11-14T16:41:34Z
2022-11-14T14:42:39Z,42.805,6.029,13.3046,4.60129,2470.73,2022-11-14T16:44:38Z
2022-11-14T14:45:43Z,42.805,6.029,13.3034,4.60123,2470.717,2022-11-14T16:47:41Z
2022-11-14T14:48:46Z,42.805,6.029,13.3031,4.60116,2470.74,2022-11-14T16:50:44Z
2022-11-14T14:51:49Z,42.805,6.029,13.3038,4.60125,2470.707,2022-11-14T16:53:47Z
2022-11-14T14:54:52Z,42.805,6.029,13.3046,4.60138,2470.717,2022-11-14T16:56:50Z
2022-11-14T14:57:55Z,42.805,6.029,13.3032,4.60144,2470.693,2022-11-14T16:59:53Z
2022-11-14T15:00:58Z,42.805,6.029,13.3041,4.60140,2470.754,2022-11-14T17:02:56Z